Regional Weather Roundup
Issued by NWS

Home | Current Version | Previous Version | Graphics & Text | Print | Product List | Glossary Off
Versions: 1 2 3 4 5 6 7 8 9 10 11 12 13 14 15 16 17 18 19 20 21 22 23 24 25 26 27 28 29 30 31 32 33 34 35 36 37 38 39 40 41 42 43 44 45 46 47 48 49 50

752
ASUS43 KMKX 062100
RWRWI

WISCONSIN REGIONAL WEATHER ROUNDUP
NATIONAL WEATHER SERVICE MILWAUKEE/SULLIVAN WI
400 PM CDT FRI MAY 06 2016

NOTE: "FAIR" INDICATES FEW OR NO CLOUDS BELOW 12,000 FEET WITH NO
SIGNIFICANT WEATHER AND/OR OBSTRUCTIONS TO VISIBILITY.

WIZ001-002-006>008-014>016-023>028-062200-
NORTHWEST WISCONSIN

CITY           SKY/WX    TMP DP  RH WIND       PRES   REMARKS
SUPERIOR ARPT  MOSUNNY   93  46  19 SW17      29.59F HX  90
ASHLAND        MOSUNNY   88  46  23 SW14G24   29.62F HX  85
HAYWARD        SUNNY     89  45  21 W13G25    29.68F HX  86
SIREN          SUNNY     88  47  24 W16G23    29.70F HX  85
CUMBERLAND     SUNNY     86  43  22 W20       29.74F HX  83
RICE LAKE      SUNNY     87  42  20 SW14G21   29.74F HX  84
CHETEK         MOSUNNY   88  50  27 W10G17    29.73F HX  85
LADYSMITH      MOSUNNY   87  43  21 SW18      29.74F HX  84
EAU CLAIRE     NOT AVBL
MENOMONIE      SUNNY     90  43  19 W15       29.73F HX  86
NEW RICHMOND   SUNNY     86  44  22 W20G26    29.72F HX  83
OSCEOLA        MOSUNNY   88  48  24 SW15G25   29.74F HX  85
$$

WIZ003>005-009-010-017-018-062200-
NORTH CENTRAL WISCONSIN

CITY           SKY/WX    TMP DP  RH WIND       PRES   REMARKS
MANITOWISH WTR SUNNY     87  37  16 W15G23    29.71F HX  83
ARBOR VITAE    SUNNY     87  24  10 W14G21    29.71F HX  83
WOODRUFF       SUNNY     87  24  10 W14G21    29.71F HX  83
RHINELANDER    SUNNY     88  33  14 W17G28    29.73F HX  84
EAGLE RIVER      N/A     86  24  10 W13G23    29.71F HX  82
LAND O LAKES   SUNNY     87  24  10 W13G18    29.71F HX  83
PHILLIPS       MOSUNNY   86  44  23 W12G17    29.71F HX  83
TOMAHAWK       SUNNY     86  33  14 W8G17     29.74F HX  83
MEDFORD        SUNNY     84  48  27 W15G24    29.76F HX  82
MERRILL        SUNNY    N/A N/A N/A W14G23    29.75F
$$

WIZ029-030-035-036-043>047-062200-
CENTRAL WISCONSIN

CITY           SKY/WX    TMP DP  RH WIND       PRES   REMARKS
WAUSAU         SUNNY     88  42  20 W13G22    29.73F HX  84
MOSINEE        SUNNY     84  39  20 W16G26    29.77F HX  81
MARSHFIELD     SUNNY     88  39  17 W17G23    29.75F HX  84
STEVENS POINT  SUNNY     85  40  19 W12       29.76F HX  82
WAUPACA        SUNNY     89  40  18 W7        29.74F HX  85
WAUTOMA        SUNNY     89  40  17 W14       29.75F HX  85
WISC RAPIDS    SUNNY     90  35  14 NW18G25   29.76F HX  86
CAMP DOUGLAS   NOT AVBL
$$

WIZ011>013-019>022-031-037>040-048>050-062200-
NORTHEAST WISCONSIN

CITY           SKY/WX    TMP DP  RH WIND       PRES   REMARKS
ANTIGO         SUNNY     84  42  22 SW16G23   29.75F HX  82
SHAWANO        SUNNY     90  41  18 SW7G16    29.72F HX  86
OCONTO         MOSUNNY   80  51  36 S8        29.72F
STURGEON BAY   SUNNY     64  43  45 S18G25    29.78F
GREEN BAY      SUNNY     84  48  28 SW9       29.75F HX  82
MANITOWOC      NOT AVBL
APPLETON       MOSUNNY   82  41  23 SW9       29.75F HX  80
CLINTONVILLE   SUNNY     88  39  18 SW10      29.74F HX  84
OSHKOSH        SUNNY     82  49  31 SW10      29.76F HX  81
$$

WIZ032>034-041-042-053>061-062200-
SOUTHWEST WISCONSIN

CITY           SKY/WX    TMP DP  RH WIND       PRES   REMARKS
LA CROSSE      MOSUNNY   91  40  16 W10G20    29.76F HX  87
SPARTA         SUNNY     89  36  15 W14G20    29.79F HX  85
VIROQUA        SUNNY     88  34  15 SW22G28   29.82F HX  84
BOSCOBEL       SUNNY     90  36  14 W14G22    29.80F HX  86
PRAIRIE DU CHI SUNNY     89  33  13 W15G22    29.80F HX  85
PLATTEVILLE    SUNNY     86  44  23 W16G24    29.85F HX  83
$$

WIZ056-057-062-063-064-067-068-062200-
SOUTH CENTRAL WISCONSIN

CITY           SKY/WX    TMP DP  RH WIND       PRES   REMARKS
REEDSBURG      SUNNY     85  48  27 W14       29.80F HX  83
BARABOO/DELLS  SUNNY     87  39  18 W14       29.80F HX  83
LONE ROCK      NOT AVBL
MINERAL POINT  SUNNY     86  41  20 W13G18    29.84F HX  83
MADISON        SUNNY     84  47  27 VRB5      29.80F HX  82
MIDDLETON      SUNNY     84  47  28 W13       29.82F HX  82
WATERTOWN      SUNNY     83  46  27 W10       29.80F HX  81
MONROE         SUNNY     81  45  28 W15G22    29.85F
JANESVILLE     MOSUNNY   84  45  24 W12G17    29.83F HX  82
$$

WIZ051-052-058>065-066-070>072-062200-
SOUTHEAST WISCONSIN

CITY           SKY/WX    TMP DP  RH WIND       PRES   REMARKS
MILWAUKEE      MOSUNNY   85  42  22 NW10G18   29.79F HX  82
WAUKESHA       SUNNY     79  45  29 W8        29.81F
MILWAUKEE/TIMM NOT AVBL
RACINE         SUNNY     71  44  37 SE9       29.82F
BURLINGTON     SUNNY     80  44  27 W9G17     29.82F
KENOSHA        SUNNY     83  49  30 W14       29.80F HX  81
FOND DU LAC    SUNNY     82  45  27 SW6       29.78F HX  80
SHEBOYGAN      SUNNY     71  46  40 SE13      29.79F
WEST BEND      SUNNY     82  41  23 W15       29.79F HX  80
JUNEAU         SUNNY     82  46  29 W15       29.82F HX  80
$$

LSZ147-162-062200-
LAKE SUPERIOR

STATION/POSITION TIME  TEMP    WIND        PRES    WAVE
                       AIR SEA DIR/SP/G            HT/PER
                 (UTC) (F)     (DEG/KT/KT) (MB)    (FT/S)
W MID LAKE BUOY  1950   51 37  210/ 12/ 12 1003.0F   1
DEVILS ISLAND    2000   80     230/ 20/ 22 1002.1F
SAXON HARBOR     2000   90     240/  7/ 16 1003.7F
$$

LMZ867-665-643>646-062200-
LAKE MICHIGAN

STATION/POSITION TIME  TEMP    WIND        PRES    WAVE
                       AIR SEA DIR/SP/G            HT/PER
                 (UTC) (F)     (DEG/KT/KT) (MB)    (FT/S)
CHAMBERS ISLAND  2000   70     140/  8/ 14 1007.8F
N MID LAKE BUOY  1950   45 39  190/ 14/ 17 1009.1F   2/ 4
NORTHPORT PIER   2000   58     160/  9/ 16 1008.8F
SISTER BAY       2004   68     170/ 16/ 25   N/A
ALGOMA LAKESHORE 2016          200/ 17/ 19   N/A
KEWAUNEE LAKESHO 2000   47     180/ 14/ 16 1009.0F
SHEBOYGAN LAKESH 2000   47     170/ 12/ 13 1010.3F
PORT WASHINGTON  2000   58     190/ 10/ 14 1010.2F
MILWAUKEE LAKESH 2010   53     140/ 14/ 15   N/A
S MID LAKE BUOY  1950   46 41  150/ 12/ 12 1011.6F   1
KENOSHA   LAKESH 2000   55     180/ 11/ 17 1010.2F
$$

TC  - TEMPERATURE IN CELSIUS
VSB - VISIBILITY IN STATUTE MILES
WCI - WIND CHILL INDEX
HX  - HEAT INDEX





USA.gov is the U.S. government's official web portal to all federal, state and local government web resources and services.